www.pogodaiklimat.ru
Время
и дата
12:51 27.06
13:51 27.06
14:51 27.06
15:51 27.06
16:51 27.06
17:51 27.06
18:51 27.06
19:51 27.06
20:51 27.06
21:51 27.06
22:51 27.06
23:51 27.06
00:51 28.06
01:51 28.06
02:51 28.06
03:51 28.06
04:51 28.06
05:51 28.06
06:51 28.06
07:51 28.06
08:05 28.06
08:47 28.06
08:51 28.06
09:51 28.06
10:51 28.06
11:51 28.06
12:51 28.06
13:51 28.06
14:51 28.06
15:51 28.06
16:51 28.06
17:51 28.06
18:51 28.06
19:51 28.06
20:51 28.06
21:51 28.06
22:51 28.06
23:51 28.06
00:51 29.06
01:51 29.06
02:51 29.06
03:51 29.06
04:51 29.06
05:51 29.06
06:51 29.06
07:51 29.06
08:51 29.06
09:51 29.06
Ветер
(напр.,м/с)
Видим. Явления Облачность Т
(С)
Тd
(С)
f
(%)
Тe
(С)
Тes
(С)
Комфортность P
(гПа)
Po
(гПа)
Тmin
(С)
Tmax
(С)
R
(мм)
R24
(мм)
S
(см)
З 2 16 км 8/2 1500 м
[Ac Ci]
+25.6 +13.3 46 +28 +33 жарко 1013.5 1002.1 +20.6 +26.1 5.8
СЗ 3
{4}
16 км 8/5 1650 м
[Ac Ci]
+25.6 +11.7 42 +27 +30 жарко 1013.6 1002.4
З 4
{5}
16 км 8/2 1800 м
[Ac Ci]
+26.1 +10.0 36 +27 +28 жарко 1013.8 1002.4
З 3
{4}
16 км 8/2 1800 м
[Ac Ci]
+25.0 +9.4 37 +26 +28 жарко 1013.5 1002.4
СЗ 2
{4}
16 км 8/2 1800 м
[Ac Ci]
+25.0 +9.4 37 +26 +28 жарко 1013.9 1002.4
З 3 16 км 8/2 1800 м
[Ac Ci]
+24.4 +10.6 42 +26 +26 жарко 1014.5 1003.1
СЗ 2 16 км 8/2 1800 м
[Ac Ci]
+22.8 +10.6 46 +25 +25 комфорт 1015.4 1004.1 +22.8 +26.7
З 3 16 км 5/2 1800 м
[Ac Ci]
+21.1 +10.0 49 +23 +23 комфорт 1016.3 1005.1
З 2 16 км 2/2 1950 м
[Ci]
+19.4 +10.0 55 +20 +20 1017.0 1005.7
З 2 16 км 2/2 1950 м
[Ci]
+18.3 +10.0 58 +18 +18 1017.4 1006.1
З 2 16 км 2/0 2400 м
[Ac]
+17.2 +9.4 60 +17 +17 1017.6 1006.1
ЮЗ 1 16 км 5/0 2550 м
[Ac]
+16.1 +9.4 64 +16 +16 1017.9 1006.4
З 1 16 км 2/0 2400 м
[Ac]
+15.6 +9.4 67 +15 +15 1017.8 1006.4 +15.6 +22.8
ЮЗ 1 16 км ясно +15.0 +10.0 72 +15 +15 1017.8 1006.4
ЮЗ 1 16 км ясно +14.4 +10.0 75 +14 +14 1018.3 1007.1
нст 1 16 км 2/0 2700 м
[Ac]
+14.4 +10.6 78 +14 +14 1018.8 1007.4
штиль 0 16 км 2/0 2700 м
[Ac]
+13.3 +10.6 84 +13 +13 1019.2 1007.8
З 2 16 км 2/2 1050 м
[Ac]
+16.1 +11.7 75 +15 +15 1019.9 1008.4
З 2 16 км 5/5 1050 м
[Ac]
+17.2 +11.7 70 +17 +17 1020.7 1009.4 +12.8 +17.8 5.8
З 2 16 км 8/8 960 м
[Ac]
+19.4 +11.7 61 +21 +21 комфорт 1021.0 1009.8
СЗ 2 16 км 8/8 870 м +19.4 +11.7 61 +21 +22 комфорт 1009.8
З 3 16 км 8/8 870 м +20.0 +12.0 60 +21 +22 комфорт 1009.8
З 2 16 км 8/8 870 м +20.0 +12.2 61 +22 +22 комфорт 1021.1 1009.8
З 2 16 км 8/8 960 м +21.1 +12.8 59 +23 +25 комфорт 1021.2 1009.8
нст 1 16 км 8/8 1170 м +23.3 +12.2 50 +26 +29 жарко 1021.1 1009.8
СЗ 1 16 км 8/8 1350 м
[Ac]
+23.3 +12.2 50 +26 +29 жарко 1021.2 1009.8
С 1 16 км 8/8 1500 м
[Ac]
+23.9 +11.1 45 +25 +29 комфорт 1021.1 1009.4 +17.2 +25.0
штиль 0 16 км 8/8 1650 м
[Ac]
+24.4 +11.7 45 +26 +31 жарко 1021.0 1009.4
нст 1 16 км 8/5 1650 м
[Ac]
+25.0 +11.1 42 +26 +32 жарко 1020.8 1009.4
СЗ 2 16 км 8/8 1800 м +26.1 +11.7 41 +27 +29 жарко 1020.4 1009.1
З 1 16 км 8/8 1800 м +24.4 +11.7 45 +26 +27 жарко 1020.2 1008.8
З 1 16 км 8/8 1800 м +24.4 +11.1 43 +26 +26 жарко 1020.2 1008.8
З 1 16 км 2/2 1800 м +23.9 +11.1 45 +25 +26 комфорт 1020.6 1009.1 +23.3 +26.1
З 1 16 км 2/2 1800 м +21.1 +11.7 55 +23 +23 комфорт 1020.9 1009.4
З 1 16 км 2/2 1800 м +19.4 +11.7 61 +21 +21 комфорт 1021.9 1010.4
З 1 16 км 2/2 1800 м +18.9 +11.7 63 +20 +20 1022.5 1011.1
штиль 0 16 км 2/2 1800 м +17.2 +11.1 67 +17 +17 1022.6 1011.1
штиль 0 16 км ясно +15.6 +11.7 78 +15 +15 1022.5 1011.1
ЮВ 1 16 км ясно +15.6 +11.7 78 +16 +16 1022.9 1011.4 +13.9 +23.9
штиль 0 16 км ясно +14.4 +11.1 81 +14 +14 1022.9 1011.4
штиль 0 16 км ясно +13.3 +11.1 87 +13 +13 1022.8 1011.4
штиль 0 16 км 2/0 7500 м
[Ci]
+12.8 +11.1 89 +12 +12 1022.9 1011.4
штиль 0 16 км 5/0 7500 м
[Ci]
+12.8 +10.6 86 +12 +12 1023.5 1012.1
штиль 0 16 км 5/0 3000 м
[Ac Ci]
+15.6 +13.3 86 +15 +16 1023.7 1012.1
ЮВ 1 16 км 5/5 1950 м
[Ci]
+17.8 +13.3 75 +18 +19 1023.3 1011.8 +11.7 +17.8
Ю 1 16 км 8/5 1950 м
[Ci]
+20.0 +13.3 65 +23 +24 комфорт 1023.5 1012.1
Ю 2 16 км 5/5 1950 м
[Ci]
+22.8 +13.9 57 +26 +29 жарко 1022.9 1011.4
Ю 2 16 км 5/2 1200 м
[Ac Ci]
+25.0 +13.9 50 +27 +33 жарко 1022.5 1011.1
Местоположение метеостанции Albany International Airport: широта 42.7431 долгота -73.8092 высота над уровнем моря 95 м.
В архиве по умолчанию представлена погода в Олбани за последние 1-2 суток. Обновление информации о фактической погоде в базе происходит ежечасно! Архивные данные за месяц целиком и за предыдущие месяцы Вы можете получить, выбрав интересующий диапазон дат из раскрывающегося списка и нажав кнопку "Ввод!".
Внимание! Архив погоды МЕТАР в базе сайта по станциям, не включенным в климатический монитор, хранится не более 60 дней. Нет смысла пытаться выбрать более раннюю дату.
*Определитесь, кто Вы:
Внимание! Время в таблицах - местное (без учета летнего времени). Для получения всемирного времени необходимо вычесть поправку, которая равна -5 ч.
Смотрите также архив погоды в соседних городах и на ближайших метеорологических станциях:
Партнеры нашего сайта:      
Пояснения к столбцам:
  • Ветер - указаны скорость ветра в м/с - средняя за 10 мин, порывы в срок и между сроками (в фигурных скобках) и направление, откуда дует ветер: С - северный,
  • СВ - северо-восточный, В - восточный, ЮВ - юго-восточный, Ю - южный, ЮЗ - юго-западный, З - западный, СЗ - северо-западный.
  • Видимость - горизонтальная дальность видимости в метрах или километрах. При видимости от 1 до 10 км при отсутствии осадков обычно наблюдается дымка, при ухудшении видимости до 1 км и менее - туман. В сухую погоду видимость может ухудшаться дымом, пылью или мглою.
  • Явления - указаны атмосферные явления, наблюдавшиеся в срок или в последний час перед сроком; фигурными скобками обозначены явления, наблюдавшиеся между сроками (за 1-3 часа до срока); квадратными скобками обозначены град или гололедные отложения с указанием их диаметра в мм.
  • Облачность - указаны через наклонную черту общая и нижняя облачность в баллах и высота нижней границы облаков в метрах; квадратными скобками обозначены формы облаков: Ci - перистые, Cs - перисто-слоистые, Cc - перисто-кучевые, Ac - высококучевые, As - высокослоистые, Sc - слоисто-кучевые, Ns - слоисто-дождевые, Cu - кучевые, Cb - кучево-дождевые. Подробнее классификацию облаков см. в Атласе облаков (PDF).
  • T - Температура воздуха - температура, измеренная на высоте 2 м над землей.
  • Td - Температура точки росы - температура, при понижении до которой содержащийся в воздухе водяной пар достигнет насыщения.
  • f - Относительная влажность воздуха - влажноcть воздуха, измеренная на высоте 2 м над землей.
  • Te - Эффективная температура - температура, которую ощущает одетый по сезону человек в тени. Характеристика душности погоды. При расчете учитывается влияние влажности воздуха и скорости ветра на теплоощущения человека.
  • Tes - Эффективная температура на солнце - температура, которую ощущает человек, с поправкой на солнечный нагрев. Характеристика знойности погоды. Зависит от высоты солнца над горизонтом, облачности и скорости ветра. Ночью, в пасмурную погоду, а также при ветре 12 м/с и более поправка равна нулю.
  • P - Атмосферное давление - приведенное к уровню моря атмосферное давление.
  • Po - Атмосферное давление - измеренное на уровне метеостанции атмосферное давление.
  • Tmin - Минимальная температура - минимум температуры воздуха на высоте 2 м над землей.
  • Tmax - Максимальная температура - максимум температуры воздуха на высоте 2 м над землей.
  • R - Количество осадков - Количество выпавших осадков за период времени, мм. При наведении курсора мыши на число - период времени, за который выпало указанное количество осадков.
  • R24 - Количество осадков - Количество выпавших осадков за 24 часа, мм.
  • S - Снежный покров - Высота снежного покрова, см. При наведении курсора мыши на число - состояние снежного покрова и степень покрытия местности в баллах.